Tracking 34717 objects as of 14-Jul-2026
HD Live streaming from Space Station
objects crossing your sky now

USA 447


10-day predictions


NORAD ID: 62346
Int'l Code: 2024-243G
Launch date: December 17, 2024
Source: United States (US)
Launch site: AIR FORCE WESTERN TEST RANGE (AFWTR)
Your satellite tracking list
Your tracking list is empty




NASA's NSSDC Master Catalog

Two Line Element Set (TLE):
1 62346U 24243G   26178.03103243 0.00000000  00000-0  00000-0 0    09
2 62346  70.0160 257.4401 0004000 162.3089 197.6910 14.96713506    08
Source of the keplerian elements: McCants